TimeEDT,TemperatureF,Dew PointF,Humidity,Sea Level PressureIn,VisibilityMPH,Wind Direction,Wind SpeedMPH,Gust SpeedMPH,PrecipitationIn,Events,Conditions,WindDirDegrees,DateUTC
12:20 AM,71.6,71.6,100,30.14,2.5,Calm,Calm,-,N/A,,Clear,0,2013-09-11 04:20:00
12:44 AM,71.6,71.6,100,30.15,1.5,Calm,Calm,-,N/A,,Clear,0,2013-09-11 04:44:00
12:46 AM,71.6,71.6,100,30.15,1.2,Calm,Calm,-,N/A,,Clear,0,2013-09-11 04:46:00
12:50 AM,71.6,71.6,100,30.15,1.5,Calm,Calm,-,N/A,,Clear,0,2013-09-11 04:50:00
12:52 AM,71.6,71.6,100,30.15,1.8,Calm,Calm,-,N/A,,Clear,0,2013-09-11 04:52:00
12:54 AM,71.6,71.6,100,30.15,3.0,Calm,Calm,-,N/A,,Clear,0,2013-09-11 04:54:00
12:58 AM,71.4,71.4,100,30.14,4.0,Calm,Calm,-,N/A,,Clear,0,2013-09-11 04:58:00
1:14 AM,71.6,71.6,100,30.14,2.5,Calm,Calm,-,N/A,,Clear,0,2013-09-11 05:14:00
1:18 AM,71.6,71.6,100,30.14,1.8,Calm,Calm,-,N/A,,Clear,0,2013-09-11 05:18:00
1:20 AM,71.6,71.6,100,30.14,1.2,Calm,Calm,-,N/A,,Clear,0,2013-09-11 05:20:00
1:22 AM,71.6,71.6,100,30.14,1.0,NE,1.2,-,N/A,,Clear,40,2013-09-11 05:22:00
1:24 AM,71.6,71.6,100,30.14,0.8,NE,2.3,-,N/A,,Clear,50,2013-09-11 05:24:00
1:26 AM,71.6,71.6,100,30.14,0.5,NE,2.3,-,N/A,Fog,Fog,50,2013-09-11 05:26:00
1:50 AM,71.6,71.6,100,30.13,0.8,Calm,Calm,-,N/A,,Clear,0,2013-09-11 05:50:00
1:52 AM,71.6,71.6,100,30.13,1.0,Calm,Calm,-,N/A,,Clear,0,2013-09-11 05:52:00
1:58 AM,71.1,71.1,100,30.13,1.0,Calm,Calm,-,N/A,,Clear,0,2013-09-11 05:58:00
2:00 AM,71.6,71.6,100,30.13,1.2,Calm,Calm,-,N/A,,Clear,0,2013-09-11 06:00:00
2:02 AM,71.6,71.6,100,30.13,0.8,Calm,Calm,-,N/A,,Clear,0,2013-09-11 06:02:00
2:04 AM,69.8,69.8,100,30.13,0.5,Calm,Calm,-,N/A,Fog,Fog,0,2013-09-11 06:04:00
2:14 AM,69.8,69.8,100,30.13,0.8,NE,1.2,-,N/A,,Clear,40,2013-09-11 06:14:00
2:16 AM,71.6,71.6,100,30.13,1.0,NE,2.3,-,N/A,,Clear,50,2013-09-11 06:16:00
2:20 AM,71.6,71.6,100,30.13,0.8,Calm,Calm,-,N/A,,Clear,0,2013-09-11 06:20:00
2:22 AM,71.6,71.6,100,30.13,0.5,NE,1.2,-,N/A,Fog,Fog,50,2013-09-11 06:22:00
2:26 AM,71.6,71.6,100,30.13,0.2,NE,2.3,-,N/A,Fog,Fog,50,2013-09-11 06:26:00
2:38 AM,69.8,69.8,100,30.13,0.5,Calm,Calm,-,N/A,Fog,Fog,0,2013-09-11 06:38:00
2:42 AM,69.8,69.8,100,30.13,0.8,Calm,Calm,-,N/A,,Clear,0,2013-09-11 06:42:00
2:44 AM,69.8,69.8,100,30.13,1.5,Calm,Calm,-,N/A,,Clear,0,2013-09-11 06:44:00
2:46 AM,69.8,69.8,100,30.13,3.0,Calm,Calm,-,N/A,,Clear,0,2013-09-11 06:46:00
2:50 AM,69.8,69.8,100,30.12,1.0,Calm,Calm,-,N/A,,Clear,0,2013-09-11 06:50:00
2:52 AM,69.8,69.8,100,30.12,0.5,Calm,Calm,-,N/A,Fog,Fog,0,2013-09-11 06:52:00
2:56 AM,69.8,69.8,100,30.12,0.2,Calm,Calm,-,N/A,Fog,Fog,0,2013-09-11 06:56:00
2:58 AM,70.5,70.5,100,30.12,0.2,Calm,Calm,-,N/A,Fog,Fog,0,2013-09-11 06:58:00
3:14 AM,69.8,69.8,100,30.12,0.5,Calm,Calm,-,N/A,Fog,Fog,0,2013-09-11 07:14:00
3:28 AM,71.6,71.6,100,30.11,0.8,Variable,2.3,-,N/A,,Clear,0,2013-09-11 07:28:00
3:34 AM,71.6,71.6,100,30.11,0.5,SSE,2.3,-,N/A,Fog,Fog,150,2013-09-11 07:34:00
3:40 AM,71.6,71.6,100,30.11,0.8,Calm,Calm,-,N/A,,Clear,0,2013-09-11 07:40:00
3:42 AM,69.8,69.8,100,30.11,1.2,Calm,Calm,-,N/A,,Clear,0,2013-09-11 07:42:00
3:44 AM,69.8,69.8,100,30.11,1.5,Calm,Calm,-,N/A,,Clear,0,2013-09-11 07:44:00
3:48 AM,69.8,69.8,100,30.11,1.2,Calm,Calm,-,N/A,,Clear,0,2013-09-11 07:48:00
3:54 AM,69.8,69.8,100,30.11,1.0,Calm,Calm,-,N/A,,Clear,0,2013-09-11 07:54:00
3:56 AM,69.8,69.8,100,30.11,0.8,Calm,Calm,-,N/A,,Clear,0,2013-09-11 07:56:00
3:58 AM,69.8,69.8,100,30.11,0.8,Calm,Calm,-,N/A,,Clear,0,2013-09-11 07:58:00
4:00 AM,69.8,69.8,100,30.11,0.5,Calm,Calm,-,N/A,Fog,Fog,0,2013-09-11 08:00:00
4:10 AM,69.8,69.8,100,30.11,0.8,Calm,Calm,-,N/A,,Clear,0,2013-09-11 08:10:00
4:12 AM,69.8,69.8,100,30.10,1.0,Calm,Calm,-,N/A,,Clear,0,2013-09-11 08:12:00
4:16 AM,69.8,69.8,100,30.10,1.2,Calm,Calm,-,N/A,,Clear,0,2013-09-11 08:16:00
4:18 AM,69.8,69.8,100,30.10,1.2,Calm,Calm,-,N/A,,Clear,0,2013-09-11 08:18:00
4:22 AM,69.8,69.8,100,30.10,1.0,Calm,Calm,-,N/A,,Clear,0,2013-09-11 08:22:00
4:32 AM,69.8,69.8,100,30.10,0.8,Calm,Calm,-,N/A,,Clear,0,2013-09-11 08:32:00
4:34 AM,69.8,69.8,100,30.11,0.5,Calm,Calm,-,N/A,Fog,Fog,0,2013-09-11 08:34:00
4:38 AM,69.8,69.8,100,30.11,0.2,Calm,Calm,-,N/A,Fog,Fog,0,2013-09-11 08:38:00
4:58 AM,68.7,68.7,100,30.11,0.2,Calm,Calm,-,N/A,Fog,Fog,0,2013-09-11 08:58:00
5:16 AM,69.8,69.8,100,30.12,0.2,Calm,Calm,-,N/A,Fog,Fog,0,2013-09-11 09:16:00
5:28 AM,68.0,68.0,100,30.12,0.2,Calm,Calm,-,N/A,Fog,Fog,0,2013-09-11 09:28:00
5:52 AM,68.0,68.0,100,30.12,0.5,Calm,Calm,-,N/A,Fog,Fog,0,2013-09-11 09:52:00
5:56 AM,68.0,68.0,100,30.13,0.8,Calm,Calm,-,N/A,,Clear,0,2013-09-11 09:56:00
5:58 AM,68.7,68.5,99,30.13,0.8,Calm,Calm,-,N/A,,Clear,0,2013-09-11 09:58:00
6:00 AM,68.0,68.0,100,30.13,0.5,Calm,Calm,-,N/A,Fog,Fog,0,2013-09-11 10:00:00
6:06 AM,68.0,68.0,100,30.13,0.2,Calm,Calm,-,N/A,Fog,Fog,0,2013-09-11 10:06:00
6:58 AM,67.8,67.8,100,30.15,0.2,Calm,Calm,-,N/A,Fog,Fog,0,2013-09-11 10:58:00
7:14 AM,68.0,68.0,100,30.15,0.2,NNE,1.2,-,N/A,Fog,Fog,30,2013-09-11 11:14:00
7:46 AM,69.8,69.8,100,30.15,0.2,Calm,Calm,-,N/A,Fog,Fog,0,2013-09-11 11:46:00
7:58 AM,69.3,69.3,100,30.15,0.2,Calm,Calm,-,N/A,Fog,Fog,0,2013-09-11 11:58:00
8:12 AM,69.8,69.8,100,30.15,0.5,Calm,Calm,-,N/A,Fog,Fog,0,2013-09-11 12:12:00
8:16 AM,69.8,69.8,100,30.15,0.8,North,-9999.0,-,N/A,,Clear,0,2013-09-11 12:16:00
8:18 AM,69.8,69.8,100,30.15,1.0,Calm,Calm,-,N/A,,Clear,0,2013-09-11 12:18:00
8:22 AM,71.6,71.6,100,30.15,1.2,Calm,Calm,-,N/A,,Clear,0,2013-09-11 12:22:00
8:23 AM,71.6,71.6,100,30.15,1.2,Calm,Calm,-,N/A,Rain,Light Rain,0,2013-09-11 12:23:00
8:27 AM,71.6,71.6,100,30.15,1.5,Calm,Calm,-,N/A,Rain,Light Rain,0,2013-09-11 12:27:00
8:31 AM,71.6,71.6,100,30.15,1.8,Calm,Calm,-,N/A,Rain,Light Rain,0,2013-09-11 12:31:00
8:35 AM,71.6,71.6,100,30.15,2.0,Calm,Calm,-,N/A,Rain,Light Rain,0,2013-09-11 12:35:00
8:45 AM,73.4,73.4,100,30.15,3.0,Calm,Calm,-,N/A,Rain,Light Rain,0,2013-09-11 12:45:00
8:58 AM,73.4,73.4,100,30.15,4.0,ESE,1.2,-,N/A,,Mostly Cloudy,120,2013-09-11 12:58:00
9:45 AM,77.0,77.0,100,30.15,9.0,SW,2.3,-,N/A,Rain,Light Rain,220,2013-09-11 13:45:00
9:54 AM,78.8,78.8,100,30.15,10.0,SSW,3.5,-,N/A,,Clear,200,2013-09-11 13:54:00
9:58 AM,78.8,78.3,98,30.15,10.0,SW,4.6,-,0.00,,Clear,220,2013-09-11 13:58:00
10:58 AM,85.5,74.5,70,30.14,10.0,SSW,6.9,-,N/A,,Clear,210,2013-09-11 14:58:00
10:59 AM,86.0,73.4,66,30.13,10.0,SSW,4.6,-,N/A,,Light Drizzle,210,2013-09-11 14:59:00
11:06 AM,86.0,73.4,66,30.13,10.0,SW,6.9,-,N/A,,Clear,230,2013-09-11 15:06:00
11:20 AM,86.0,73.4,66,30.12,10.0,SW,5.8,-,N/A,Rain,Light Rain,220,2013-09-11 15:20:00
11:32 AM,87.8,73.4,62,30.12,10.0,South,4.6,-,N/A,,Clear,170,2013-09-11 15:32:00
11:58 AM,88.9,74.5,62,30.12,10.0,Variable,2.3,-,0.00,,Clear,0,2013-09-11 15:58:00
12:58 PM,91.0,73.9,57,30.10,10.0,South,6.9,-,N/A,,Clear,170,2013-09-11 16:58:00
1:58 PM,92.5,73.6,54,30.07,10.0,Variable,6.9,-,N/A,,Clear,0,2013-09-11 17:58:00
2:58 PM,93.4,71.6,49,30.04,10.0,SSW,6.9,-,N/A,,Partly Cloudy,200,2013-09-11 18:58:00
3:58 PM,90.7,74.1,58,30.01,10.0,SSE,8.1,-,N/A,,Partly Cloudy,160,2013-09-11 19:58:00
4:58 PM,92.5,72.0,51,30.02,10.0,SSW,11.5,-,N/A,,Clear,210,2013-09-11 20:58:00
5:36 PM,91.4,69.8,49,30.00,10.0,South,9.2,-,N/A,Thunderstorm,Thunderstorm,190,2013-09-11 21:36:00
5:51 PM,89.6,73.4,59,30.02,10.0,South,8.1,-,N/A,,Clear,170,2013-09-11 21:51:00
5:58 PM,88.2,72.5,60,30.02,10.0,South,8.1,-,N/A,,Clear,180,2013-09-11 21:58:00
6:58 PM,84.9,72.0,65,30.02,10.0,NNW,9.2,-,N/A,,Mostly Cloudy,340,2013-09-11 22:58:00
7:26 PM,84.2,69.8,62,30.03,10.0,NNW,12.7,18.4,N/A,Thunderstorm,Thunderstorm,330,2013-09-11 23:26:00
7:58 PM,78.3,70.3,77,30.03,10.0,Variable,3.5,19.6,N/A,Thunderstorm,Thunderstorm,0,2013-09-11 23:58:00
7:59 PM,78.8,69.8,74,30.04,10.0,ESE,5.8,-,N/A,Thunderstorm,Mostly Cloudy,120,2013-09-11 23:59:00
8:58 PM,76.8,70.0,79,30.05,10.0,NNW,1.2,-,N/A,,Clear,330,2013-09-12 00:58:00
9:58 PM,73.9,70.5,89,30.03,10.0,NW,2.3,-,N/A,,Clear,310,2013-09-12 01:58:00
10:58 PM,78.1,69.1,74,30.03,10.0,Calm,Calm,-,N/A,,Scattered Clouds,0,2013-09-12 02:58:00
11:58 PM,74.8,70.2,85,30.01,10.0,Calm,Calm,-,N/A,,Partly Cloudy,0,2013-09-12 03:58:00